This is the latest recevied weather packets stored in our database for station/object DK6GC-10. If no packets are shown the sender has not sent any weather packets the latest 10 day(s).
| Time | Temp. | Humidity | Pressure | Rain* | Wind** | Luminosity | Snow |
|---|---|---|---|---|---|---|---|
| 1788511518 | 26.11° C | 53% | 1019.9 hPa | - | - | - | - |
| 1788510618 | 26.11° C | 51% | 1020 hPa | - | - | - | - |
| 1788509718 | 26.11° C | 51% | 1020 hPa | - | - | - | - |
| 1788508817 | 25.56° C | 53% | 1020.1 hPa | - | - | - | - |
| 1788507917 | 25° C | 53% | 1020.1 hPa | - | - | - | - |
| 1788507017 | 23.89° C | 59% | 1020.2 hPa | - | - | - | - |
| 1788506117 | 22.78° C | 65% | 1020.2 hPa | - | - | - | - |
| 1788505217 | 21.67° C | 74% | 1020.5 hPa | - | - | - | - |
| 1788504316 | 20.56° C | 76% | 1020.6 hPa | - | - | - | - |
| 1788503437 | 19.44° C | 75% | 1020.7 hPa | - | - | - | - |
| 1788502516 | 19.44° C | 77% | 1020.6 hPa | - | - | - | - |
| 1788497123 | 16.67° C | 87% | 1020.8 hPa | - | - | - | - |
| 1788496223 | 16.67° C | 86% | 1021 hPa | - | - | - | - |
| 1788495322 | 16.67° C | 85% | 1020.9 hPa | - | - | - | - |
| 1788494422 | 16.67° C | 84% | 1021.1 hPa | - | - | - | - |
| 1788493521 | 17.22° C | 83% | 1021.1 hPa | - | - | - | - |
| 1788492621 | 17.22° C | 80% | 1021.1 hPa | - | - | - | - |
| 1788491721 | 17.78° C | 80% | 1021.2 hPa | - | - | - | - |
| 1788490821 | 18.33° C | 75% | 1021.3 hPa | - | - | - | - |
| 1788489021 | 18.89° C | 75% | 1021.7 hPa | - | - | - | - |
| 1788488120 | 18.89° C | 76% | 1021.9 hPa | - | - | - | - |
| 1788487220 | 18.33° C | 75% | 1022 hPa | - | - | - | - |
| 1788486320 | 18.33° C | 75% | 1021.9 hPa | - | - | - | - |
| 1788485420 | 18.89° C | 72% | 1021.9 hPa | - | - | - | - |
| 1788484520 | 18.89° C | 73% | 1021.9 hPa | - | - | - | - |
* Rain since midnight (hover to see other rain measurements)
** Current wind speed in m/s (hover to see current wind gust speed)